Change the Weather History Date:

Sunday, July 7, 2013

  Actual Average Record
Temperature  
Mean Temperature 99 °F -  
Max Temperature 107 °F 107 °F 113 °F (1998)
Min Temperature 91 °F 84 °F 84 °F (2000)
Cooling Degree Days 34    
Growing Degree Days 49 (Base 50)    
Moisture  
Dew Point 73 °F    
Average Humidity 49    
Maximum Humidity 79    
Minimum Humidity 19    
Precipitation  
Precipitation 0.00 in 0.00 in - ()
Sea Level Pressure  
Sea Level Pressure 29.49 in    
Wind  
Wind Speed 5 mph ()    
Max Wind Speed 10 mph    
Max Gust Speed -    
Visibility 5.9 miles    
Events      
Averages and records for this station are not official NWS values.
T = Trace of Precipitation, MM = Missing Value Source: Averaged Metar Reports

Daily Weather History Graph

Daily Weather History Graph

Search for Another Location

Airport or City:

Trip Planner

Search our weather history database for the weather conditions in past years. The results will help you decide how hot, cold, wet, or windy it might be!

Date:

Astronomy

Jul. 07, 2013 Rise Set
Actual Time 4:49 AM AST 6:27 PM AST
Civil Twilight 4:23 AM AST 6:53 PM AST
Nautical Twilight 3:52 AM AST 7:24 PM AST
Astronomical Twilight 3:20 AM AST 7:56 PM AST
Moon 4:00 AM AST (7/7) 5:42 PM AST (7/7)
Length of Visible Light 14h 29m
Length of Day
13h 38m
Waning Crescent, 1% of the Moon is Illuminated
Jul 7
Waning Crescent
Jul 8
New
Jul 16
First Quarter
Jul 22
Full
Jul 29
Last Quarter

Hourly Weather History & Observations

Time (AST) Temp. Heat Index Dew Point Humidity Pressure Visibility Wind Dir Wind Speed Gust Speed Precip Events Conditions
12:00 AM 91.4 °F 117.8 °F 84.2 °F 79% 29.47 in 5.6 mi WSW 3.5 mph - N/A   Unknown
12:30 AM 95.0 °F 101.3 °F 69.8 °F 44% 29.47 in - NNW 6.9 mph - N/A   Clear
1:00 AM 93.2 °F 100.5 °F 71.6 °F 49% 29.47 in - NW 5.8 mph - N/A   Clear
1:30 AM 93.2 °F 100.5 °F 71.6 °F 49% 29.47 in - NW 6.9 mph - N/A   Clear
2:00 AM 93.2 °F 97.7 °F 68.0 °F 44% 29.47 in - NW 5.8 mph - N/A   Clear
2:30 AM 93.2 °F 98.8 °F 69.8 °F 46% 29.47 in - NNW 4.6 mph - N/A   Clear
3:00 AM 95 °F - 66 °F 28% 29.47 in 6 mi NW 5.8 mph - -   Scattered Clouds
3:00 AM 95.0 °F 98.5 °F 66.2 °F 39% 29.47 in - NW 5.8 mph - N/A   Clear
4:00 AM 95.0 °F 97.0 °F 64.4 °F 36% 29.47 in - WSW 3.5 mph - N/A   Clear
4:30 AM 95.0 °F 97.0 °F 64.4 °F 36% 29.47 in - NW 5.8 mph - N/A   Clear
5:00 AM 93.2 °F 94.1 °F 62.6 °F 36% 29.47 in - WNW 4.6 mph - N/A   Clear
5:30 AM 95.0 °F 96.0 °F 62.6 °F 34% 29.50 in - NW 5.8 mph - N/A   Clear
6:00 AM 95.0 °F 96.0 °F 62.6 °F 34% 29.50 in - NW 5.8 mph - N/A   Clear
6:30 AM 95.0 °F 99.5 °F 68.0 °F 41% 29.50 in - North - - N/A   Volcanic Ash
7:00 AM 95.0 °F 104.5 °F 73.4 °F 49% 29.53 in - North - - N/A   Volcanic Ash
8:00 AM 96.8 °F 103.1 °F 69.8 °F 41% 29.53 in - Variable 3.5 mph - N/A   Clear
8:30 AM 100.4 °F 106.3 °F 68.0 °F 35% 29.53 in - Variable 2.3 mph - N/A   Clear
9:00 AM 104.0 °F 102.3 °F 53.6 °F 19% 29.53 in - North 6.9 mph - N/A   Clear
9:30 AM 104.0 °F 103.4 °F 57.2 °F 21% 29.53 in - NNW 6.9 mph - N/A   Clear
10:00 AM 104.0 °F 107.4 °F 64.4 °F 27% 29.53 in - NNE 5.8 mph - N/A   Clear
10:30 AM 102.2 °F 111.7 °F 71.6 °F 37% 29.53 in - East 6.9 mph - N/A   Clear
11:00 AM 102.2 °F 114.4 °F 73.4 °F 40% 29.53 in - ESE 6.9 mph - N/A   Clear
11:30 AM 104.0 °F 112.2 °F 69.8 °F 33% 29.50 in - ESE 5.8 mph - N/A   Clear
12:00 PM 102.2 °F 114.4 °F 73.4 °F 40% 29.50 in - ESE 9.2 mph - N/A   Clear
12:30 PM 102.2 °F 114.4 °F 73.4 °F 40% 29.50 in - East 9.2 mph - N/A   Clear
1:00 PM 105.8 °F 114.2 °F 69.8 °F 31% 29.50 in - ENE 6.9 mph - N/A   Clear
1:30 PM 105.8 °F 114.2 °F 69.8 °F 31% 29.47 in - NE 9.2 mph - N/A   Clear
2:00 PM 104.0 °F 108.9 °F 66.2 °F 29% 29.47 in - NNE 10.4 mph - N/A   Clear
3:00 PM 102.2 °F 110.0 °F 69.8 °F 35% 29.47 in - North 9.2 mph - N/A   Clear
3:30 PM 102.2 °F 116.3 °F 75.2 °F 42% 29.44 in - North 9.2 mph - N/A   Clear
4:00 PM 100.4 °F 116.5 °F 77.0 °F 47% 29.44 in - North 8.1 mph - N/A   Clear
4:30 PM 100.4 °F 113.6 °F 75.2 °F 44% 29.44 in - North 8.1 mph - N/A   Clear
5:00 PM 98.6 °F 114.4 °F 77.0 °F 50% 29.44 in - North 8.1 mph - N/A   Clear
5:30 PM 96.8 °F 112.2 °F 77.0 °F 53% 29.47 in - NNE 8.1 mph - N/A   Clear
6:00 PM 95.0 °F 112.2 °F 78.8 °F 59% 29.47 in - North 8.1 mph - N/A   Clear
6:30 PM 93.2 °F 117.1 °F 82.4 °F 71% 29.47 in - NNE 6.9 mph - N/A   Clear
7:00 PM 93.2 °F 117.1 °F 82.4 °F 71% 29.47 in - NNE 5.8 mph - N/A   Clear
7:30 PM 91.4 °F 114.3 °F 82.4 °F 75% 29.47 in - NNE 4.6 mph - N/A   Clear
8:00 PM 91.4 °F 117.8 °F 84.2 °F 79% 29.47 in - NNE 5.8 mph - N/A   Clear
8:30 PM 91.4 °F 117.8 °F 84.2 °F 79% 29.50 in - NNE 4.6 mph - N/A   Clear
9:00 PM 91 °F - 85 °F 77% 29.51 in 6 mi North 4.6 mph - -   Scattered Clouds
9:00 PM 91.4 °F 117.8 °F 84.2 °F 79% 29.50 in - North 4.6 mph - N/A   Clear
10:00 PM 91.4 °F 117.8 °F 84.2 °F 79% 29.50 in - NNE 3.5 mph - N/A   Clear
10:30 PM 91.4 °F 117.8 °F 84.2 °F 79% 29.47 in - Variable 2.3 mph - N/A   Clear
11:00 PM 91.4 °F 117.8 °F 84.2 °F 79% 29.47 in - Calm Calm - N/A   Clear
11:30 PM 91.4 °F 111.0 °F 80.6 °F 71% 29.47 in - Variable 1.2 mph - N/A   Clear